Jaipur, India

8:16 AM IST on September 28, 2016 (GMT +0530)
Jaipur

Weather History for VIJP - May, 2014

Change the Weather History Date:

Sunday, May 25, 2014

  Actual Average Record
Temperature  
Mean Temperature 89 °F -  
Max Temperature 104 °F - - ()
Min Temperature 74 °F - - ()
Cooling Degree Days 24    
Growing Degree Days 39 (Base 50)    
Moisture  
Dew Point 56 °F    
Average Humidity 32    
Maximum Humidity 61    
Minimum Humidity 11    
Precipitation  
Precipitation 0.00 in - - ()
Sea Level Pressure  
Sea Level Pressure 29.74 in    
Wind  
Wind Speed 4 mph ()    
Max Wind Speed 10 mph    
Max Gust Speed -    
Visibility 2.0 miles    
Events Rain , Thunderstorm    
T = Trace of Precipitation, MM = Missing Value Source: Averaged Metar Reports

Daily Weather History Graph

Daily Weather History Graph

Search for Another Location

Airport or City:

Trip Planner

Search our weather history database for the weather conditions in past years. The results will help you decide how hot, cold, wet, or windy it might be!

Date:

Astronomy

May. 25, 2014 Rise Set
Actual Time 5:35 AM IST 7:12 PM IST
Civil Twilight 5:09 AM IST 7:38 PM IST
Nautical Twilight 4:38 AM IST 8:09 PM IST
Astronomical Twilight 4:06 AM IST 8:41 PM IST
Moon 3:02 AM IST (5/25) 4:01 PM IST (5/25)
Length of Visible Light 14h 28m
Length of Day
13h 37m
Waning Crescent, 13% of the Moon is Illuminated
May 25
Waning Crescent
May 29
New
Jun 6
First Quarter
Jun 13
Full
Jun 20
Last Quarter

Hourly Weather History & Observations

Time (IST) Temp. Heat Index Dew Point Humidity Pressure Visibility Wind Dir Wind Speed Gust Speed Precip Events Conditions
12:00 AM 80.6 °F 81.5 °F 60.8 °F 51% 29.77 in 1.9 mi South 10.4 mph - N/A Rain , Thunderstorm Light Thunderstorms and Rain
2:30 AM 78 °F - 62 °F 48% 29.72 in 1 mi East 4.6 mph - -   Haze
5:00 AM 77.0 °F - 60.8 °F 57% 29.74 in 1.9 mi Calm Calm - N/A   Haze
5:30 AM 78 °F - 63 °F 51% 29.70 in 1 mi Calm Calm - -   Haze
6:00 AM 78.8 °F - 62.6 °F 57% 29.77 in 1.9 mi WNW 5.8 mph - N/A   Haze
7:00 AM 80.6 °F 81.8 °F 62.6 °F 54% 29.80 in 1.9 mi Variable 1.2 mph - N/A   Haze
8:00 AM 80.6 °F 82.7 °F 66.2 °F 61% 29.83 in 1.9 mi East 8.1 mph - N/A   Haze
8:30 AM 82 °F - 66 °F 49% 29.76 in 1 mi Calm Calm - -   Haze
9:00 AM 84.2 °F 85.0 °F 62.6 °F 48% 29.86 in 1.9 mi East 5.8 mph - N/A   Haze
10:00 AM 91.4 °F 90.7 °F 59.0 °F 34% 29.83 in 1.9 mi ESE 8.1 mph - N/A   Haze
11:00 AM 93.2 °F 91.9 °F 57.2 °F 30% 29.83 in 1.9 mi East 9.2 mph - N/A   Haze
11:30 AM 96 °F - 56 °F 17% 29.70 in 2 mi East 6.9 mph - -   Haze
12:00 PM 96.8 °F 94.4 °F 53.6 °F 23% 29.83 in 2.5 mi East 6.9 mph - N/A   Haze
1:00 PM 98.6 °F - 51.8 °F 21% 29.80 in 2.5 mi Variable 5.8 mph - N/A   Haze
2:00 PM 100.4 °F - 48.2 °F 17% 29.77 in 2.5 mi Variable 4.6 mph - N/A   Haze
2:30 PM 101 °F - 51 °F 11% 29.65 in 2 mi SW 5.8 mph - -   Haze
3:00 PM 100.4 °F - 48.2 °F 17% 29.74 in 2.5 mi SSW 5.8 mph - N/A   Haze
4:00 PM 102.2 °F - 48.2 °F 16% 29.71 in 2.5 mi Calm Calm - N/A   Haze
5:00 PM 100.4 °F - 48.2 °F 17% 29.68 in 2.5 mi WSW 4.6 mph - N/A   Haze
5:30 PM 101 °F - 50 °F 11% 29.57 in 2 mi West 4.6 mph - -   Haze
6:00 PM 100.4 °F - 48.2 °F 17% 29.68 in 2.5 mi West 4.6 mph - N/A   Haze
7:00 PM 98.6 °F - 48.2 °F 18% 29.68 in 2.5 mi NW 3.5 mph - N/A   Haze
8:30 PM 94 °F - 53 °F 16% 29.62 in 2 mi Calm Calm - -   Haze
9:00 PM 93.2 °F - 51.8 °F 24% 29.74 in 2.2 mi Calm Calm - N/A   Haze
11:00 PM 87.8 °F 85.7 °F 53.6 °F 31% 29.74 in 1.9 mi Calm Calm - N/A   Haze
11:30 PM 87 °F - 56 °F 25% 29.66 in 1 mi ENE 1.2 mph - -   Haze